Lapse_Rate
6.1 6.1 6.0 6.0 6.0 6.0 6.1 6.1 6.1 6.4 6.4 6.2 6.4 6.4 6.7 7.0 7.1 7.4 7.2 7.1 6.8 6.7 7.2 7.1 7.0 6.9 6.9 6.7 6.6 6.7 6.8 7.0 6.7 6.4 6.8 6.5 6.5 6.0 5.7 5.8 5.5 5.8 5.9 5.9
6.5 6.3 6.2 6.1 5.8 5.8 5.9 5.9 6.2 6.3 6.5 6.3 6.6 6.6 6.7 6.8 7.4 7.4 7.6 7.3 7.3 7.1 7.0 6.8 6.8 6.8 7.0 6.9 7.0 7.0 7.2 7.1 7.1 6.5 6.4 6.4 6.2 5.9 5.8 5.7 5.4 5.7 5.6 6.0
6.4 6.1 6.2 6.0 6.1 6.4 6.4 6.3 6.3 6.2 6.3 6.5 6.7 6.5 6.7 6.7 7.0 7.6 7.6 7.5 7.4 7.4 7.2 6.8 6.8 6.8 7.2 7.1 6.9 7.2 6.8 6.8 6.8 6.4 6.4 6.2 6.2 6.1 6.0 5.7 5.5 5.7 5.9 6.1
6.5 6.5 6.3 6.3 6.5 6.5 6.4 6.8 6.6 6.5 6.4 6.1 7.0 6.5 7.1 6.9 7.0 7.5 7.8 7.9 7.5 7.2 7.2 7.0 6.9 6.4 7.1 7.3 7.3 7.1 7.0 6.4 6.6 6.6 6.6 6.4 6.4 6.2 5.8 6.1 5.7 5.8 6.2 6.3
7.0 7.0 6.5 6.5 6.7 6.4 6.5 6.7 5.9 5.5 5.7 5.6 6.9 6.6 7.3 7.5 7.1 7.3 7.6 7.9 7.4 7.0 7.1 7.3 7.1 6.9 7.0 6.1 5.8 7.0 6.4 6.5 6.7 6.4 6.3 6.1 5.9 5.9 5.0 5.9 5.6 5.6 6.2 6.3
7.0 7.0 6.8 6.8 6.8 6.7 6.0 5.7 5.6 5.4 5.3 5.8 6.2 6.9 7.9 7.3 6.8 7.4 7.2 7.7 7.8 7.1 6.9 7.0 6.9 7.0 7.0 7.1 7.0 6.8 6.6 6.3 6.2 5.9 6.0 5.9 5.9 5.3 5.4 5.8 5.9 6.1 6.4 6.2
7.0 7.2 7.1 6.9 6.8 6.9 5.7 5.2 4.8 4.8 5.1 5.7 6.1 6.3 7.6 7.0 6.9 7.2 7.8 7.8 7.9 7.7 6.8 6.9 7.2 7.1 7.2 7.4 6.8 6.9 6.8 6.9 6.3 5.9 5.6 5.9 4.8 5.7 5.7 5.9 6.2 6.4 6.2 6.1
6.0 6.6 7.1 7.0 6.9 6.7 6.2 5.8 5.2 4.9 5.5 5.4 5.5 5.8 6.4 6.7 7.0 7.1 7.7 7.7 7.8 7.6 7.2 7.4 7.2 6.8 6.8 6.7 6.8 6.9 6.5 6.7 6.3 5.7 5.4 5.9 6.1 6.6 6.7 6.8 6.5 6.6 6.2 6.2
6.3 6.8 7.6 7.2 7.2 6.8 6.6 6.0 5.6 5.3 5.1 4.9 6.6 6.5 6.6 6.3 6.5 7.7 8.1 8.0 7.7 7.2 7.0 7.1 6.8 7.0 6.9 6.9 6.5 6.6 6.9 6.5 6.2 5.8 5.8 6.4 6.6 6.7 6.8 6.7 6.5 6.1 6.1 6.0
6.1 6.5 7.4 7.3 7.2 6.9 7.1 6.7 6.0 5.5 5.6 4.9 6.5 6.3 6.0 6.3 5.6 6.3 6.7 7.3 7.2 7.4 7.1 7.0 7.0 6.7 6.9 7.2 6.9 7.0 6.8 6.6 6.4 6.4 6.5 6.7 6.8 6.7 6.5 6.2 5.9 6.0 6.1 5.7
6.1 6.1 7.4 7.1 7.0 6.6 6.9 6.8 6.7 6.0 5.6 5.6 5.0 6.1 5.9 6.5 6.7 6.6 6.0 5.8 6.4 6.5 7.1 7.2 7.1 7.1 7.2 7.2 6.9 6.7 6.8 6.8 6.8 6.9 6.8 6.8 6.6 6.3 6.2 6.2 5.9 5.7 5.5 4.8
6.0 6.2 6.5 7.5 7.1 7.1 7.1 7.0 7.0 6.8 6.7 5.8 5.7 6.4 6.3 6.4 6.8 6.8 6.3 6.0 5.8 6.0 7.3 7.1 7.3 7.6 7.6 7.7 7.6 7.2 6.9 6.9 6.9 6.9 6.7 6.3 6.1 5.9 5.9 5.5 5.4 5.1 4.8 4.5
6.0 5.9 6.1 7.3 7.4 7.3 7.4 7.1 7.1 7.1 6.8 6.8 5.8 6.3 6.5 6.4 6.5 6.8 6.7 6.8 6.9 6.9 7.4 7.4 7.3 7.1 6.8 6.8 6.9 7.0 7.0 6.8 6.6 6.0 5.8 5.9 5.6 5.5 5.4 5.2 4.8 4.7 4.7 4.7
6.1 6.0 5.9 6.1 6.5 6.6 7.3 7.1 7.0 7.3 7.3 7.0 7.0 6.8 6.7 6.5 6.6 6.9 6.8 6.8 7.0 6.9 6.9 7.0 7.1 7.2 7.2 7.2 7.1 6.8 6.6 6.1 5.9 5.5 5.8 5.4 5.1 5.1 5.2 5.1 4.9 4.9 4.9 4.9
5.7 6.0 6.0 6.4 6.7 7.0 7.1 7.2 7.1 7.2 7.1 7.1 6.9 7.1 7.1 6.7 6.6 6.9 7.2 7.2 7.1 7.1 7.0 7.0 7.0 7.0 6.9 6.8 6.8 6.6 6.4 6.2 5.8 5.5 5.4 5.3 5.2 5.1 4.8 4.8 4.8 4.7 4.5 4.4
5.4 5.9 6.1 7.0 7.0 7.1 7.5 7.4 7.4 7.2 7.3 7.1 6.9 7.2 7.0 7.0 6.8 6.7 6.5 6.6 7.0 7.2 7.4 7.3 7.1 6.9 6.7 6.6 6.5 6.3 6.1 5.9 5.6 5.4 5.2 5.0 4.7 4.6 4.6 4.4 4.2 4.1 4.1 4.0
5.5 5.8 5.9 6.7 7.2 7.3 7.4 7.5 7.4 7.4 7.4 7.3 7.1 6.8 6.8 6.9 7.0 6.9 6.8 6.7 6.7 6.7 6.8 6.8 6.7 6.6 6.4 6.2 6.0 5.8 5.7 5.5 5.5 5.3 5.0 4.8 4.7 4.5 4.4 4.3 4.1 4.0 3.8 3.8
5.8 5.6 5.5 6.1 6.7 6.5 7.1 7.3 7.2 7.3 7.6 7.5 7.3 7.0 6.9 6.8 7.0 6.8 6.7 6.6 6.6 6.6 6.6 6.4 6.3 6.1 6.1 6.0 5.8 5.7 5.7 5.5 5.2 5.0 4.8 4.7 4.7 4.5 4.3 4.0 3.8 3.6 3.5 3.6
5.7 5.4 5.5 5.7 6.0 6.6 6.9 7.0 7.2 7.2 7.4 7.5 7.3 7.1 7.1 7.2 7.1 7.1 7.1 7.1 7.0 6.9 6.8 6.6 6.3 6.1 6.1 6.0 5.9 5.7 5.4 5.1 5.0 4.9 4.8 4.6 4.3 4.1 3.8 3.6 3.4 3.3 3.6 4.0
5.7 5.5 5.2 5.5 5.9 5.6 6.9 7.1 7.1 7.2 7.3 7.5 7.4 7.2 7.1 7.0 7.2 7.1 7.1 7.1 7.0 6.9 6.7 6.5 6.4 6.3 6.2 6.1 5.7 5.3 4.9 4.7 4.5 4.4 4.2 4.1 4.0 3.7 3.4 3.0 3.0 3.4 4.0 4.1
5.7 5.5 5.6 5.4 5.5 6.4 6.9 7.0 7.0 7.0 7.4 7.5 7.3 7.2 7.3 7.2 7.1 7.2 7.2 7.1 7.0 6.8 6.6 6.4 6.2 6.0 5.9 5.7 5.2 4.9 4.6 4.5 4.4 4.4 4.2 4.0 3.7 3.3 2.9 3.0 3.7 4.4 4.3 4.3
5.8 6.0 6.0 5.7 5.5 6.0 6.5 6.7 6.9 7.1 7.1 7.2 7.3 7.2 7.2 7.2 7.2 7.2 7.3 7.3 7.1 6.9 6.6 6.3 6.1 5.9 5.7 5.4 5.1 5.0 4.9 4.7 4.5 4.4 4.1 3.7 3.4 3.3 3.2 3.9 4.5 4.3 4.4 4.5
5.6 5.9 6.0 6.3 6.3 6.5 6.4 6.5 6.7 7.0 7.1 7.1 7.3 7.3 7.3 7.3 7.3 7.3 7.4 7.2 7.2 7.0 6.6 6.3 6.1 6.1 5.8 5.4 5.2 5.0 4.8 4.6 4.4 4.0 3.7 3.7 3.6 3.2 3.6 4.6 4.6 4.6 4.6 4.5
5.3 5.5 5.6 6.1 6.2 6.4 6.4 6.3 6.4 6.6 6.8 6.9 7.0 7.2 7.3 7.4 7.4 7.4 7.4 7.3 7.0 6.9 6.7 6.4 6.0 5.8 5.5 5.2 4.8 4.7 4.5 4.2 4.0 3.7 3.7 3.6 3.5 3.4 4.2 4.7 4.6 4.6 4.6 4.5
4.9 5.3 5.8 6.2 6.2 6.3 6.1 6.2 6.4 6.4 6.5 6.7 6.9 7.0 7.1 7.2 7.4 7.4 7.4 7.3 7.1 6.8 6.6 6.3 5.9 5.5 5.3 4.9 4.7 4.6 4.3 3.9 3.6 3.5 3.6 3.5 3.5 3.8 4.7 4.8 4.6 4.5 4.4 4.4
5.4 5.8 5.8 6.4 6.2 5.6 5.6 5.8 6.0 6.1 6.2 6.4 6.8 6.9 7.0 7.0 7.2 7.2 7.3 7.2 7.0 6.7 6.3 6.1 5.8 5.4 5.2 5.0 4.6 4.3 4.0 3.8 3.5 3.5 3.5 3.5 3.6 4.1 4.9 4.8 4.6 4.2 4.2 4.3
Wind_Speed
1 2 5 9 6 5 6 5 9 9 7 7 11 10 8 9 6 9 9 9 10 16 21 14 16 15 15 15 15 19 17 12 10 9 8 5 7 4 2 7 14 14 17 16
5 3 7 7 8 6 7 7 11 8 5 7 9 16 7 7 8 8 9 8 12 6 8 13 17 19 18 18 19 18 18 15 11 9 4 3 6 2 3 3 6 13 15 16
3 5 6 3 5 7 5 7 6 11 5 5 5 15 5 6 6 6 9 7 11 9 11 15 18 20 16 16 18 16 16 16 12 10 7 5 5 4 3 2 2 5 14 14
4 3 4 4 5 4 8 6 12 14 7 6 2 11 4 6 9 5 8 9 8 7 12 16 21 15 14 10 10 11 14 14 10 10 8 12 7 7 4 4 4 4 12 13
7 4 4 3 5 3 10 12 8 12 13 4 5 3 6 4 5 7 9 9 9 9 18 19 20 19 18 11 4 9 12 9 9 8 8 8 6 2 3 4 7 4 4 10
6 4 2 3 7 8 13 6 13 3 1 3 7 4 5 4 8 11 13 10 9 6 11 13 13 16 15 12 11 13 13 9 10 9 8 8 8 7 4 4 5 4 3 4
7 6 5 2 8 5 5 6 4 5 4 3 11 5 5 7 10 7 13 10 7 8 0 8 14 13 12 14 13 12 15 12 11 9 6 6 5 5 7 6 4 4 4 2
4 9 2 4 4 5 4 3 1 3 5 5 5 3 5 13 8 7 11 10 12 13 9 10 9 13 11 10 11 10 10 10 9 8 9 10 6 4 6 6 4 4 4 4
4 6 6 5 5 1 3 4 2 1 3 4 2 2 3 4 9 10 13 14 11 10 9 12 10 7 5 6 8 8 9 9 9 9 7 6 6 6 5 6 4 3 5 4
2 6 4 8 5 4 1 6 1 2 5 5 6 4 6 4 5 7 5 7 10 6 7 8 7 8 6 8 8 9 9 8 8 8 5 6 7 7 7 7 7 8 7 7
1 2 8 4 3 5 3 3 1 4 1 3 4 4 6 4 0 1 6 7 6 6 7 8 7 7 7 9 9 9 10 12 10 9 9 10 9 10 9 9 8 7 7 7
1 2 5 7 8 7 4 3 3 3 6 1 1 4 5 5 6 6 7 8 4 4 9 9 9 9 10 9 10 10 9 10 9 9 11 10 10 9 10 8 7 6 7 6
1 1 5 10 6 6 4 6 3 3 3 3 2 3 3 6 6 7 7 7 7 9 10 8 9 7 7 8 8 10 10 10 10 11 11 10 9 9 8 7 6 6 6 5
3 2 6 5 9 3 7 13 10 3 2 2 3 3 4 4 3 3 5 6 6 6 7 6 7 7 7 8 9 9 10 10 9 11 10 9 7 7 6 6 6 6 5 5
3 3 4 8 14 10 13 11 5 4 3 3 3 1 5 4 6 4 4 5 6 6 6 6 6 7 8 9 10 10 9 9 8 9 8 7 6 7 6 6 6 5 5 4
5 4 5 6 3 4 3 3 3 3 3 3 3 3 4 4 5 4 7 7 6 6 6 7 7 7 7 8 7 7 7 7 7 7 7 6 6 6 6 5 5 5 4 4
2 2 3 5 6 8 2 3 1 2 1 2 2 2 2 5 5 2 3 7 8 8 7 7 7 7 6 7 7 7 7 5 7 7 6 6 6 6 5 5 5 5 4 3
3 2 2 4 6 1 5 1 4 5 1 1 2 2 4 5 4 2 2 7 8 8 8 7 7 6 6 5 7 6 6 6 6 6 6 5 6 6 5 5 4 2 1 1
7 3 1 0 2 5 3 3 4 3 2 2 4 3 4 5 1 3 4 5 7 7 6 6 6 6 7 7 7 8 7 6 6 6 5 5 5 4 3 3 1 0 0 2
5 2 3 1 0 4 4 2 1 3 4 4 5 6 6 3 2 4 3 3 7 8 8 9 7 6 8 5 7 8 6 7 6 4 3 3 3 3 3 2 1 2 1 2
3 2 5 3 3 7 6 2 2 2 6 4 5 5 6 5 4 4 6 7 6 7 9 7 7 7 6 6 7 7 6 6 3 3 3 3 2 3 2 2 1 2 3 3
6 6 4 3 2 6 5 3 5 5 2 4 3 3 3 4 6 6 6 8 9 10 7 7 8 6 4 6 8 6 6 2 3 5 5 4 4 3 2 3 2 2 2 3
3 5 3 8 5 4 5 6 3 6 5 4 4 4 7 8 5 7 7 7 7 9 7 5 8 7 6 6 6 7 2 4 5 6 6 5 4 4 4 3 3 2 2 2
3 2 3 2 3 3 5 2 4 6 6 5 5 6 8 8 8 7 7 7 6 6 6 5 7 7 5 5 6 6 5 5 6 6 5 4 4 5 5 3 2 2 0 2
5 1 2 6 6 7 5 6 4 3 3 4 5 7 9 9 9 9 6 7 7 6 5 6 7 6 6 6 6 5 5 5 5 4 3 4 3 4 4 3 1 2 3 4
6 11 7 10 7 5 4 3 5 6 6 7 7 6 6 8 11 7 7 6 6 7 5 6 6 7 6 6 6 5 5 5 4 3 3 2 3 3 3 3 4 7 10 12
Wind_Direction
221 70 252 252 242 257 277 279 272 288 274 276 276 277 260 277 284 279 274 245 220 208 218 186 177 169 167 155 165 165 154 151 153 146 147 144 145 156 147 153 167 163 154 159
8 275 263 288 304 322 305 306 297 286 264 290 284 282 245 246 260 238 258 237 247 183 181 160 174 174 174 171 169 175 169 150 156 162 146 151 150 131 94 116 171 170 159 162
238 256 314 5 326 316 293 269 272 280 283 268 278 279 284 267 267 266 278 257 232 216 153 157 166 175 174 176 174 168 164 162 155 153 121 110 85 77 75 162 217 197 167 167
273 274 300 319 304 293 306 250 281 285 295 280 127 288 271 273 285 295 330 345 258 160 150 159 167 173 178 185 176 158 147 160 157 159 168 168 163 159 199 163 159 203 178 171
279 286 313 300 264 295 263 299 278 291 284 344 277 241 281 300 303 331 320 317 324 192 154 161 167 166 168 216 182 148 140 152 160 164 167 168 139 144 151 138 142 204 189 173
264 264 251 245 290 270 283 314 329 346 74 262 334 241 303 28 317 314 320 304 310 191 179 169 164 169 177 168 156 148 140 152 167 170 163 153 146 149 170 141 152 192 168 168
328 296 292 268 312 319 20 359 319 7 31 301 317 321 268 340 344 310 314 320 35 47 296 145 145 154 168 168 164 156 162 163 171 171 152 136 161 150 156 169 186 178 143 142
12 325 331 345 248 277 40 93 41 320 335 297 342 321 322 312 318 346 16 34 54 49 48 71 134 159 166 166 168 169 168 165 152 138 172 138 156 173 209 172 169 184 151 141
344 282 303 269 283 38 333 22 124 191 235 311 284 254 292 347 24 12 28 39 36 59 53 66 67 82 117 136 141 131 139 134 134 133 153 157 170 166 147 124 131 116 114 114
307 297 257 306 2 38 294 154 312 63 352 350 322 30 349 43 348 3 36 40 28 6 65 66 63 75 79 88 87 103 107 128 136 121 122 119 130 125 115 109 107 105 94 97
62 136 287 341 18 325 328 333 42 124 306 340 317 346 11 13 173 191 62 22 38 357 63 62 55 58 71 74 83 94 112 112 106 109 111 105 97 93 91 97 92 93 97 103
283 163 288 261 281 263 305 305 104 82 304 128 142 303 27 23 22 53 63 101 128 107 79 73 68 65 62 72 81 81 83 88 91 91 88 87 86 80 88 85 85 83 96 96
306 349 331 344 1 8 2 319 331 115 56 315 58 312 68 59 40 18 70 55 45 51 58 59 64 62 67 67 74 77 82 78 78 86 86 79 85 90 86 90 90 93 96 92
99 162 179 218 247 288 308 311 305 124 86 282 250 309 31 107 118 86 68 65 63 67 76 71 63 65 62 68 77 74 70 76 80 83 85 84 82 88 88 85 83 90 100 105
74 249 213 242 260 275 258 265 320 48 294 118 306 42 326 178 159 153 121 92 89 95 89 87 89 88 84 80 84 83 81 86 93 91 88 92 93 88 87 83 83 87 84 84
357 285 350 292 242 319 251 342 43 21 6 105 101 48 327 68 88 116 140 127 117 108 99 103 104 100 95 96 91 88 95 97 100 96 104 106 94 88 88 85 79 67 47 36
266 209 14 275 321 319 21 321 15 91 347 264 177 130 117 65 83 84 169 152 147 141 134 127 128 123 116 109 117 117 122 115 103 108 110 106 105 96 86 82 75 63 59 44
210 151 148 272 334 127 249 56 113 121 345 25 92 101 140 149 152 95 263 170 154 141 132 131 126 108 107 106 97 110 110 99 96 89 88 84 89 87 79 79 79 81 90 58
182 121 276 100 284 290 259 208 189 201 276 246 164 173 164 166 149 347 4 180 156 147 136 127 127 122 115 112 114 97 83 89 85 89 92 96 111 113 104 101 87 335 304 289
116 99 136 102 139 232 242 202 102 99 286 224 176 189 184 172 114 255 349 107 101 104 121 122 116 111 107 109 103 93 96 93 90 96 105 111 122 122 117 125 331 294 296 297
140 167 196 225 251 284 242 180 119 124 239 192 175 193 164 185 204 164 115 75 93 117 120 109 101 105 115 119 106 99 104 102 139 132 113 91 93 123 109 87 6 336 343 359
174 160 202 156 200 270 187 96 178 214 216 185 166 176 143 129 122 125 119 115 120 120 115 112 102 91 90 111 103 105 100 113 68 43 34 55 46 43 40 34 10 24 38 14
244 194 201 184 214 236 225 206 186 166 166 183 171 166 152 144 158 152 142 132 137 134 128 114 114 100 77 96 107 103 49 64 70 64 54 49 48 27 10 8 13 19 13 28
243 151 214 25 274 248 245 252 192 181 187 172 163 163 163 161 157 153 144 139 137 140 135 126 116 107 96 92 83 97 85 84 79 75 61 41 23 13 4 15 29 3 26 317
203 54 216 258 280 293 253 220 210 203 171 155 142 167 177 153 166 162 154 153 152 145 132 133 127 120 120 100 85 74 71 80 88 85 58 23 29 13 351 340 298 324 264 284
188 218 209 252 202 185 227 307 178 179 198 200 166 142 164 163 162 156 157 156 149 144 136 123 119 118 120 110 98 80 66 76 84 59 24 26 14 343 345 336 325 339 337 330